Weather History for Crookston, MN

Change the Weather History Date:

Tuesday, December 3, 2013

  Actual Average Record
Temperature  
Mean Temperature 24 °F -  
Max Temperature 26 °F 25 °F 46 °F (2012)
Min Temperature 21 °F 12 °F -9 °F (2007)
Degree Days  
Heating Degree Days 42    
Moisture  
Dew Point 19 °F    
Average Humidity 88    
Maximum Humidity 100    
Minimum Humidity 80    
Precipitation  
Precipitation 0.00 in - - ()
Sea Level Pressure  
Sea Level Pressure 29.86 in    
Wind  
Wind Speed 13 mph (NNE)    
Max Wind Speed 16 mph    
Max Gust Speed 22 mph    
Visibility 9 miles    
Events Snow    
Averages and records for this station are not official NWS values.
T = Trace of Precipitation, MM = Missing Value Source: NWS Daily Summary

Daily Weather History Graph

Daily Weather History Graph

Search for Another Location

Airport:

Trip Planner

Search our weather history database for the weather conditions in past years. The results will help you decide how hot, cold, wet, or windy it might be!

Date:

Astronomy

Dec. 03, 2013 Rise Set
Actual Time 7:57 AM CST 4:35 PM CST
Civil Twilight 7:21 AM CST 5:10 PM CST
Nautical Twilight 6:42 AM CST 5:49 PM CST
Astronomical Twilight 6:05 AM CST 6:27 PM CST
Moon 8:26 AM CST (12/3) 5:42 PM CST (12/3)
Length of Visible Light 9h 48m
Length of Day
8h 37m
New Moon, 1% of the Moon is Illuminated
Dec 3
New Moon
Dec 9
First Quarter
Dec 17
Full
Dec 25
Last Quarter
Jan 1
New

Hourly Weather History & Observations

Time (CST) Temp. Windchill Dew Point Humidity Pressure Visibility Wind Dir Wind Speed Gust Speed Precip Events Conditions
12:14 AM 23.0 °F 11.1 °F 19.4 °F 86% 29.77 in 5.0 mi NE 12.7 mph - N/A Snow Light Snow
12:35 AM 23.0 °F 10.1 °F 19.4 °F 86% 29.77 in 7.0 mi NE 15.0 mph 19.6 mph N/A Snow Light Snow
12:54 AM 23.0 °F 11.1 °F 19.4 °F 86% 29.77 in 7.0 mi NE 12.7 mph - N/A   Overcast
1:15 AM 23.0 °F 10.1 °F 19.4 °F 86% 29.77 in 7.0 mi NE 15.0 mph 19.6 mph N/A   Overcast
1:34 AM 23.0 °F 11.7 °F 19.4 °F 86% 29.77 in 10.0 mi NE 11.5 mph 17.3 mph N/A   Overcast
1:54 AM 23.0 °F 10.6 °F 19.4 °F 86% 29.76 in 10.0 mi NE 13.8 mph 19.6 mph N/A   Overcast
2:15 AM 21.2 °F 8.3 °F 19.4 °F 93% 29.77 in 10.0 mi NE 13.8 mph 19.6 mph N/A   Overcast
2:34 AM 23.0 °F 9.6 °F 19.4 °F 86% 29.78 in 10.0 mi NNE 16.1 mph 21.9 mph N/A   Overcast
2:54 AM 23.0 °F 10.6 °F 19.4 °F 86% 29.80 in 10.0 mi NNE 13.8 mph - N/A   Overcast
3:15 AM 23.0 °F 10.6 °F 19.4 °F 86% 29.81 in 10.0 mi NNE 13.8 mph - N/A   Overcast
3:34 AM 23.0 °F 10.6 °F 19.4 °F 86% 29.80 in 10.0 mi NNE 13.8 mph 20.7 mph N/A   Overcast
3:54 AM 21.2 °F 7.8 °F 19.4 °F 93% 29.80 in 5.0 mi NNE 15.0 mph 20.7 mph N/A   Overcast
4:15 AM 21.2 °F 8.9 °F 19.4 °F 93% 29.80 in 7.0 mi NNE 12.7 mph 17.3 mph N/A   Overcast
4:34 AM 21.2 °F 8.3 °F 19.4 °F 93% 29.79 in 10.0 mi NE 13.8 mph 20.7 mph N/A   Overcast
4:54 AM 21.2 °F 7.8 °F 17.6 °F 86% 29.80 in 10.0 mi NNE 15.0 mph - N/A   Overcast
5:15 AM 21.2 °F 9.5 °F 17.6 °F 86% 29.80 in 10.0 mi NNE 11.5 mph 17.3 mph N/A Snow Light Snow
5:34 AM 21.2 °F 8.9 °F 17.6 °F 86% 29.82 in 10.0 mi NNE 12.7 mph - N/A   Overcast
5:54 AM 21.2 °F 9.5 °F 17.6 °F 86% 29.82 in 10.0 mi NNE 11.5 mph - N/A   Overcast
6:15 AM 21.2 °F 8.9 °F 17.6 °F 86% 29.82 in 10.0 mi NNE 12.7 mph - N/A   Overcast
6:34 AM 21.2 °F 8.9 °F 17.6 °F 86% 29.81 in 10.0 mi NNE 12.7 mph - N/A   Overcast
6:54 AM 21.2 °F 8.3 °F 17.6 °F 86% 29.82 in 10.0 mi NNE 13.8 mph - N/A   Overcast
7:15 AM 21.2 °F 8.3 °F 17.6 °F 86% 29.82 in 10.0 mi NNE 13.8 mph 19.6 mph N/A   Overcast
7:34 AM 21.2 °F 8.3 °F 17.6 °F 86% 29.84 in 10.0 mi NNE 13.8 mph 19.6 mph N/A   Overcast
7:54 AM 21.2 °F 7.3 °F 17.6 °F 86% 29.83 in 10.0 mi NNE 16.1 mph - N/A   Overcast
8:15 AM 21.2 °F 7.8 °F 17.6 °F 86% 29.84 in 10.0 mi NNE 15.0 mph 19.6 mph N/A   Overcast
8:34 AM 21.2 °F 8.9 °F 17.6 °F 86% 29.85 in 10.0 mi NNE 12.7 mph 20.7 mph N/A   Overcast
8:54 AM 21.2 °F 8.9 °F 17.6 °F 86% 29.87 in 10.0 mi NNE 12.7 mph 18.4 mph N/A   Overcast
9:15 AM 21.2 °F 10.1 °F 17.6 °F 86% 29.88 in 10.0 mi NNE 10.4 mph - N/A   Overcast
9:34 AM 21.2 °F 10.1 °F 17.6 °F 86% 29.88 in 10.0 mi NNE 10.4 mph - N/A   Overcast
9:54 AM 21.2 °F 9.5 °F 17.6 °F 86% 29.88 in 10.0 mi NNE 11.5 mph - N/A   Overcast
10:15 AM 21.2 °F 8.3 °F 17.6 °F 86% 29.88 in 10.0 mi NNE 13.8 mph - N/A   Overcast
10:34 AM 21.2 °F 8.3 °F 17.6 °F 86% 29.89 in 10.0 mi NNE 13.8 mph - N/A   Overcast
10:55 AM 21.2 °F 7.3 °F 17.6 °F 86% 29.89 in 10.0 mi NNE 16.1 mph 20.7 mph N/A Snow Light Snow
11:14 AM 21.2 °F 7.8 °F 17.6 °F 86% 29.88 in 5.0 mi NNE 15.0 mph 20.7 mph N/A Snow Light Snow
11:34 AM 21.2 °F 8.3 °F 19.4 °F 93% 29.88 in 7.0 mi NNE 13.8 mph - N/A Snow Light Snow
11:55 AM 21.2 °F 7.8 °F 19.4 °F 93% 29.87 in 10.0 mi NNE 15.0 mph - N/A Snow Light Snow
12:14 PM 23.0 °F 10.1 °F 19.4 °F 86% 29.86 in 10.0 mi NNE 15.0 mph 19.6 mph N/A Snow Light Snow
12:34 PM 23.0 °F 10.6 °F 19.4 °F 86% 29.86 in 10.0 mi NNE 13.8 mph 19.6 mph N/A Snow Light Snow
12:55 PM 23.0 °F 10.6 °F 19.4 °F 86% 29.86 in 10.0 mi NNE 13.8 mph - N/A Snow Light Snow
1:14 PM 23.0 °F 11.1 °F 19.4 °F 86% 29.86 in 10.0 mi NNE 12.7 mph 19.6 mph N/A Snow Light Snow
1:34 PM 23.0 °F 10.6 °F 19.4 °F 86% 29.86 in 10.0 mi NNE 13.8 mph - N/A Snow Light Snow
1:55 PM 23.0 °F 10.6 °F 19.4 °F 86% 29.87 in 10.0 mi NNE 13.8 mph 19.6 mph N/A   Overcast
2:14 PM 23.0 °F 12.4 °F 19.4 °F 86% 29.87 in 10.0 mi NNE 10.4 mph 16.1 mph N/A   Overcast
2:34 PM 23.0 °F 11.7 °F 19.4 °F 86% 29.87 in 10.0 mi North 11.5 mph - N/A   Overcast
2:55 PM 23.0 °F 10.6 °F 19.4 °F 86% 29.87 in 10.0 mi North 13.8 mph - N/A   Overcast
3:14 PM 23.0 °F 10.6 °F 19.4 °F 86% 29.88 in 10.0 mi North 13.8 mph - N/A   Overcast
3:35 PM 23.0 °F 10.1 °F 19.4 °F 86% 29.88 in 10.0 mi North 15.0 mph - N/A   Overcast
3:54 PM 23.0 °F 10.6 °F 19.4 °F 86% 29.89 in 10.0 mi North 13.8 mph - N/A   Overcast
4:14 PM 23.0 °F 11.1 °F 19.4 °F 86% 29.89 in 2.5 mi North 12.7 mph - N/A   Overcast
4:35 PM 21.2 °F 10.1 °F 21.2 °F 100% 29.88 in 2.0 mi North 10.4 mph - N/A   Overcast
4:54 PM 21.2 °F 8.9 °F 21.2 °F 100% 29.88 in 3.0 mi NNE 12.7 mph - N/A   Overcast
5:14 PM 21.2 °F 8.3 °F 21.2 °F 100% 29.89 in 4.0 mi North 13.8 mph - N/A   Overcast
5:35 PM 21.2 °F 8.3 °F 21.2 °F 100% 29.90 in 5.0 mi North 13.8 mph - N/A Snow Light Snow
5:54 PM 21.2 °F 7.3 °F 21.2 °F 100% 29.91 in 7.0 mi North 16.1 mph - N/A   Overcast
6:14 PM 21.2 °F 7.8 °F 21.2 °F 100% 29.91 in 10.0 mi North 15.0 mph - N/A   Overcast
6:35 PM 21.2 °F 8.9 °F 21.2 °F 100% 29.89 in 10.0 mi North 12.7 mph - N/A   Overcast
6:54 PM 21.2 °F 8.9 °F 19.4 °F 93% 29.89 in 10.0 mi NNE 12.7 mph - N/A   Overcast
7:15 PM 21.2 °F 8.3 °F 21.2 °F 100% 29.89 in 10.0 mi NNE 13.8 mph - N/A   Overcast
7:34 PM 23.0 °F 11.7 °F 21.2 °F 93% 29.89 in 10.0 mi NNE 11.5 mph - N/A   Overcast
7:54 PM 23.0 °F 11.7 °F 21.2 °F 93% 29.91 in 10.0 mi NNE 11.5 mph - N/A   Overcast
8:15 PM 24.8 °F 16.1 °F 21.2 °F 86% 29.93 in 10.0 mi NNE 8.1 mph - N/A   Overcast
8:34 PM 24.8 °F 15.3 °F 21.2 °F 86% 29.92 in 10.0 mi NE 9.2 mph - N/A   Overcast
8:54 PM 26.6 °F 16.8 °F 21.2 °F 80% 29.92 in 10.0 mi NE 10.4 mph - N/A   Overcast
9:15 PM 26.6 °F 17.5 °F 21.2 °F 80% 29.91 in 10.0 mi ENE 9.2 mph - N/A Snow Light Snow
9:34 PM 26.6 °F 16.2 °F 21.2 °F 80% 29.91 in 10.0 mi ENE 11.5 mph 17.3 mph N/A Snow Light Snow
9:54 PM 24.8 °F 12.4 °F 21.2 °F 86% 29.89 in 10.0 mi East 15.0 mph 19.6 mph N/A Snow Light Snow
10:15 PM 24.8 °F 12.9 °F 21.2 °F 86% 29.90 in 10.0 mi East 13.8 mph 17.3 mph N/A Snow Light Snow
10:34 PM 24.8 °F 12.4 °F 21.2 °F 86% 29.91 in 4.0 mi East 15.0 mph 18.4 mph N/A Snow Light Snow
10:54 PM 24.8 °F 13.4 °F 21.2 °F 86% 29.90 in 3.0 mi East 12.7 mph 19.6 mph N/A Snow Light Snow
11:15 PM 24.8 °F 12.9 °F 21.2 °F 86% 29.90 in 4.0 mi East 13.8 mph - N/A Snow Light Snow
11:34 PM 24.8 °F 12.9 °F 21.2 °F 86% 29.90 in 2.0 mi East 13.8 mph - N/A Snow Light Snow
11:54 PM 23.0 °F 9.6 °F 21.2 °F 93% 29.91 in 1.8 mi East 16.1 mph - N/A Snow Light Snow